Time,TemperatureF,DewpointF,PressureIn,WindDirection,WindDirectionDegrees,WindSpeedMPH,WindSpeedGustMPH,Humidity,HourlyPrecipIn,Conditions,Clouds,dailyrainin,SoftwareType,DateUTC
2013-06-08 00:22:00,59.0,-99.9,-100.00,North,-999,-999.0,-999.0,-999,0.01,,,0.11,,2013-06-08 06:22:00,
2013-06-08 00:32:00,59.0,-99.9,-100.00,North,-999,-999.0,-999.0,-999,0.01,,,0.11,,2013-06-08 06:32:00,
2013-06-08 00:43:00,59.0,-99.9,-100.00,North,-999,-999.0,-999.0,-999,0.01,,,0.11,,2013-06-08 06:43:00,
2013-06-08 01:22:00,57.0,-99.9,-100.00,North,-999,-999.0,-999.0,-999,0.00,,,0.11,,2013-06-08 07:22:00,
2013-06-08 01:32:00,57.0,-99.9,-100.00,North,-999,-999.0,-999.0,-999,0.00,,,0.11,,2013-06-08 07:32:00,
2013-06-08 01:42:00,57.0,-99.9,-100.00,North,-999,-999.0,-999.0,-999,0.00,,,0.11,,2013-06-08 07:42:00,
2013-06-08 02:22:00,56.0,-99.9,-100.00,North,-999,-999.0,-999.0,-999,0.00,,,0.11,,2013-06-08 08:22:00,
2013-06-08 02:32:00,56.0,-99.9,-100.00,North,-999,-999.0,-999.0,-999,0.00,,,0.11,,2013-06-08 08:32:00,
2013-06-08 02:42:00,56.0,-99.9,-100.00,North,-999,-999.0,-999.0,-999,0.00,,,0.11,,2013-06-08 08:42:00,
2013-06-08 03:23:00,57.0,-99.9,-100.00,North,-999,-999.0,-999.0,-999,0.00,,,0.11,,2013-06-08 09:23:00,
2013-06-08 03:33:00,57.0,-99.9,-100.00,North,-999,-999.0,-999.0,-999,0.00,,,0.11,,2013-06-08 09:33:00,
2013-06-08 03:43:00,57.0,-99.9,-100.00,North,-999,-999.0,-999.0,-999,0.00,,,0.11,,2013-06-08 09:43:00,
2013-06-08 04:23:00,58.0,-99.9,-100.00,North,-999,-999.0,-999.0,-999,0.11,,,0.22,,2013-06-08 10:23:00,
2013-06-08 04:33:00,58.0,-99.9,-100.00,North,-999,-999.0,-999.0,-999,0.11,,,0.22,,2013-06-08 10:33:00,
2013-06-08 04:43:00,58.0,-99.9,-100.00,North,-999,-999.0,-999.0,-999,0.11,,,0.22,,2013-06-08 10:43:00,
2013-06-08 05:22:00,60.0,-99.9,-100.00,North,-999,-999.0,-999.0,-999,0.05,,,-99.99,,2013-06-08 11:22:00,
2013-06-08 05:32:00,60.0,-99.9,-100.00,North,-999,-999.0,-999.0,-999,0.05,,,-99.99,,2013-06-08 11:32:00,
2013-06-08 05:42:00,60.0,-99.9,-100.00,North,-999,-999.0,-999.0,-999,0.05,,,-99.99,,2013-06-08 11:42:00,
2013-06-08 06:22:00,58.0,-99.9,-100.00,North,-999,-999.0,-999.0,-999,0.02,,,0.29,,2013-06-08 12:22:00,
2013-06-08 06:33:00,58.0,-99.9,-100.00,North,-999,-999.0,-999.0,-999,0.02,,,0.29,,2013-06-08 12:33:00,
2013-06-08 06:42:00,58.0,-99.9,-100.00,North,-999,-999.0,-999.0,-999,0.02,,,0.29,,2013-06-08 12:42:00,
2013-06-08 08:22:00,59.0,-99.9,-100.00,North,-999,-999.0,-999.0,-999,-99.99,,,0.29,,2013-06-08 14:22:00,
2013-06-08 08:33:00,59.0,-99.9,-100.00,North,-999,-999.0,-999.0,-999,-99.99,,,0.29,,2013-06-08 14:33:00,
2013-06-08 08:43:00,59.0,-99.9,-100.00,North,-999,-999.0,-999.0,-999,-99.99,,,0.29,,2013-06-08 14:43:00,
2013-06-08 09:22:00,65.0,-99.9,-100.00,North,-999,-999.0,-999.0,-999,0.00,,,0.29,,2013-06-08 15:22:00,
2013-06-08 09:33:00,65.0,-99.9,-100.00,North,-999,-999.0,-999.0,-999,0.00,,,0.29,,2013-06-08 15:33:00,
2013-06-08 09:43:00,65.0,-99.9,-100.00,North,-999,-999.0,-999.0,-999,0.00,,,0.29,,2013-06-08 15:43:00,
2013-06-08 10:23:00,68.0,-99.9,-100.00,North,-999,-999.0,-999.0,-999,0.00,,,0.29,,2013-06-08 16:23:00,
2013-06-08 10:33:00,68.0,-99.9,-100.00,North,-999,-999.0,-999.0,-999,0.00,,,0.29,,2013-06-08 16:33:00,
2013-06-08 10:42:00,68.0,-99.9,-100.00,North,-999,-999.0,-999.0,-999,0.00,,,0.29,,2013-06-08 16:42:00,
2013-06-08 11:23:00,71.0,-99.9,-100.00,North,-999,-999.0,-999.0,-999,0.00,,,0.29,,2013-06-08 17:23:00,
2013-06-08 11:32:00,71.0,-99.9,-100.00,North,-999,-999.0,-999.0,-999,0.00,,,0.29,,2013-06-08 17:32:00,
2013-06-08 11:42:00,71.0,-99.9,-100.00,North,-999,-999.0,-999.0,-999,0.00,,,0.29,,2013-06-08 17:42:00,
2013-06-08 12:22:00,72.0,-99.9,-100.00,North,-999,-999.0,-999.0,-999,0.00,,,0.29,,2013-06-08 18:22:00,
2013-06-08 12:32:00,72.0,-99.9,-100.00,North,-999,-999.0,-999.0,-999,0.00,,,0.29,,2013-06-08 18:32:00,
2013-06-08 12:42:00,72.0,-99.9,-100.00,North,-999,-999.0,-999.0,-999,0.00,,,0.29,,2013-06-08 18:42:00,
2013-06-08 13:22:00,74.0,-99.9,-100.00,North,-999,-999.0,-999.0,-999,0.00,,,0.29,,2013-06-08 19:22:00,
2013-06-08 13:32:00,74.0,-99.9,-100.00,North,-999,-999.0,-999.0,-999,0.00,,,0.29,,2013-06-08 19:32:00,
2013-06-08 13:42:00,74.0,-99.9,-100.00,North,-999,-999.0,-999.0,-999,0.00,,,0.29,,2013-06-08 19:42:00,
2013-06-08 14:22:00,74.0,-99.9,-100.00,North,-999,-999.0,-999.0,-999,0.00,,,0.29,,2013-06-08 20:22:00,
2013-06-08 14:32:00,74.0,-99.9,-100.00,North,-999,-999.0,-999.0,-999,0.00,,,0.29,,2013-06-08 20:32:00,
2013-06-08 14:42:00,74.0,-99.9,-100.00,North,-999,-999.0,-999.0,-999,0.00,,,0.29,,2013-06-08 20:42:00,
2013-06-08 15:22:00,74.0,-99.9,-100.00,North,-999,-999.0,-999.0,-999,0.00,,,0.29,,2013-06-08 21:22:00,
2013-06-08 15:33:00,74.0,-99.9,-100.00,North,-999,-999.0,-999.0,-999,0.00,,,0.29,,2013-06-08 21:33:00,
2013-06-08 15:43:00,74.0,-99.9,-100.00,North,-999,-999.0,-999.0,-999,0.00,,,0.29,,2013-06-08 21:43:00,
2013-06-08 16:23:00,72.0,-99.9,-100.00,North,-999,-999.0,-999.0,-999,0.00,,,0.29,,2013-06-08 22:23:00,
2013-06-08 16:34:00,72.0,-99.9,-100.00,North,-999,-999.0,-999.0,-999,0.00,,,0.29,,2013-06-08 22:34:00,
2013-06-08 16:43:00,72.0,-99.9,-100.00,North,-999,-999.0,-999.0,-999,0.00,,,0.29,,2013-06-08 22:43:00,
2013-06-08 17:22:00,74.0,-99.9,-100.00,North,-999,-999.0,-999.0,-999,0.00,,,0.29,,2013-06-08 23:22:00,
2013-06-08 17:32:00,74.0,-99.9,-100.00,North,-999,-999.0,-999.0,-999,0.00,,,0.29,,2013-06-08 23:32:00,
2013-06-08 17:42:00,74.0,-99.9,-100.00,North,-999,-999.0,-999.0,-999,0.00,,,0.29,,2013-06-08 23:42:00,
2013-06-08 18:22:00,74.0,-99.9,-100.00,North,-999,-999.0,-999.0,-999,0.00,,,0.29,,2013-06-09 00:22:00,
2013-06-08 18:32:00,74.0,-99.9,-100.00,North,-999,-999.0,-999.0,-999,0.00,,,0.29,,2013-06-09 00:32:00,
2013-06-08 18:42:00,74.0,-99.9,-100.00,North,-999,-999.0,-999.0,-999,0.00,,,0.29,,2013-06-09 00:42:00,
2013-06-08 19:22:00,72.0,-99.9,-100.00,North,-999,-999.0,-999.0,-999,0.00,,,0.29,,2013-06-09 01:22:00,
2013-06-08 19:32:00,72.0,-99.9,-100.00,North,-999,-999.0,-999.0,-999,0.00,,,0.29,,2013-06-09 01:32:00,
2013-06-08 19:42:00,72.0,-99.9,-100.00,North,-999,-999.0,-999.0,-999,0.00,,,0.29,,2013-06-09 01:42:00,
2013-06-08 20:22:00,67.0,-99.9,-100.00,North,-999,-999.0,-999.0,-999,0.00,,,0.24,,2013-06-09 02:22:00,
2013-06-08 20:32:00,67.0,-99.9,-100.00,North,-999,-999.0,-999.0,-999,0.00,,,0.24,,2013-06-09 02:32:00,
2013-06-08 20:42:00,67.0,-99.9,-100.00,North,-999,-999.0,-999.0,-999,0.00,,,0.24,,2013-06-09 02:42:00,
2013-06-08 21:22:00,59.0,-99.9,-100.00,North,-999,-999.0,-999.0,-999,0.00,,,0.24,,2013-06-09 03:22:00,
2013-06-08 22:23:00,58.0,-99.9,-100.00,North,-999,-999.0,-999.0,-999,0.00,,,0.24,,2013-06-09 04:23:00,
2013-06-08 22:33:00,58.0,-99.9,-100.00,North,-999,-999.0,-999.0,-999,0.00,,,0.24,,2013-06-09 04:33:00,
2013-06-08 22:43:00,58.0,-99.9,-100.00,North,-999,-999.0,-999.0,-999,0.00,,,0.24,,2013-06-09 04:43:00,
2013-06-08 23:22:00,57.0,-99.9,-100.00,North,-999,-999.0,-999.0,-999,0.00,,,0.19,,2013-06-09 05:22:00,
2013-06-08 23:32:00,57.0,-99.9,-100.00,North,-999,-999.0,-999.0,-999,0.00,,,0.19,,2013-06-09 05:32:00,
2013-06-08 23:42:00,57.0,-99.9,-100.00,North,-999,-999.0,-999.0,-999,0.00,,,0.19,,2013-06-09 05:42:00,